Fulton, NY

6:10 AM EDT on October 16, 2019 (GMT -0400)
Oswego County

Weather History for KFZY - May, 2019

Change the Weather History Date:

Thursday, May 30, 2019

  Actual Average (WUND) Record (WUND)
Temperature  
Mean Temperature 58 °F -  
Max Temperature 72 °F - - (-1)
Min Temperature 44 °F - - (-1)
Degree Days  
Heating Degree Days 8    
Growing Degree Days 8 (Base 50)    
Moisture  
Dew Point 50 °F    
Average Humidity 77    
Maximum Humidity 90    
Minimum Humidity 53    
Precipitation  
Precipitation 0.00 in - - ()
Sea Level Pressure  
Sea Level Pressure 29.73 in    
Wind  
Wind Speed 2 mph (SSW)    
Max Wind Speed 10 mph    
Max Gust Speed -    
Visibility 10 miles    
Events      
Averages and records for this station are not official NWS values.
T = Trace of Precipitation, MM = Missing Value Source: NWS Daily Summary

Daily Weather History Graph

Daily Weather History Graph

Search for Another Location

Airport or City:

Astronomy

May. 30, 2019 Rise Set
Actual Time 5:29 AM EDT 8:37 PM EDT
Civil Twilight 4:54 AM EDT 9:12 PM EDT
Nautical Twilight 4:10 AM EDT 9:56 PM EDT
Astronomical Twilight 3:17 AM EDT 10:50 PM EDT
Moon 3:43 AM EDT (5/30) 4:34 PM EDT (5/30)
Length of Visible Light 16h 17m
Length of Day
15h 08m
Waning Crescent, 15% of the Moon is Illuminated
May 30
Waning Crescent
Jun 3
New
Jun 10
First Quarter
Jun 17
Full
Jun 25
Last Quarter

Hourly Weather History & Observations

Time (EDT) Temp. Dew Point Humidity Pressure Visibility Wind Dir Wind Speed Gust Speed Precip Events Conditions
12:54 AM 48.9 °F 45.0 °F 86% 29.77 in 10.0 mi Calm Calm - N/A   Clear
1:54 AM 45.0 °F 42.1 °F 90% 29.78 in 10.0 mi Calm Calm - N/A   Clear
2:54 AM 44.1 °F 41.0 °F 89% 29.78 in 10.0 mi Calm Calm - N/A   Partly Cloudy
3:06 AM 45.0 °F 41.0 °F 86% 29.78 in 10.0 mi Calm Calm - N/A   Mostly Cloudy
3:16 AM 45.0 °F 41.0 °F 86% 29.78 in 10.0 mi Calm Calm - N/A   Mostly Cloudy
3:54 AM 46.9 °F 43.0 °F 86% 29.78 in 10.0 mi Calm Calm - N/A   Mostly Cloudy
4:15 AM 46.9 °F 44.1 °F 90% 29.77 in 10.0 mi Calm Calm - N/A   Mostly Cloudy
4:54 AM 46.9 °F 43.0 °F 86% 29.77 in 10.0 mi Calm Calm - N/A   Clear
5:54 AM 46.9 °F 43.0 °F 86% 29.77 in 10.0 mi Calm Calm - N/A   Clear
6:54 AM 50.0 °F 46.9 °F 89% 29.78 in 10.0 mi Calm Calm - N/A   Mostly Cloudy
7:03 AM 51.1 °F 46.9 °F 86% 29.78 in 10.0 mi SE 3.5 mph - N/A   Mostly Cloudy
7:30 AM 52.0 °F 48.9 °F 89% 29.78 in 10.0 mi ESE 3.5 mph - N/A   Scattered Clouds
7:54 AM 54.0 °F 50.0 °F 86% 29.79 in 10.0 mi Calm Calm - N/A   Mostly Cloudy
8:27 AM 55.9 °F 51.1 °F 84% 29.78 in 10.0 mi Variable 3.5 mph - N/A   Scattered Clouds
8:46 AM 55.9 °F 52.0 °F 87% 29.78 in 10.0 mi Variable 3.5 mph - N/A   Mostly Cloudy
8:54 AM 57.9 °F 53.1 °F 84% 29.78 in 10.0 mi Calm Calm - N/A   Overcast
9:54 AM 62.1 °F 54.0 °F 75% 29.78 in 10.0 mi SSE 4.6 mph - N/A   Mostly Cloudy
10:54 AM 64.0 °F 54.0 °F 70% 29.77 in 10.0 mi Variable 6.9 mph - N/A   Mostly Cloudy
11:21 AM 64.9 °F 54.0 °F 68% 29.75 in 10.0 mi Variable 5.8 mph - N/A   Partly Cloudy
11:54 AM 66.0 °F 52.0 °F 60% 29.74 in 10.0 mi SW 4.6 mph - N/A   Partly Cloudy
12:54 PM 66.0 °F 52.0 °F 60% 29.72 in 10.0 mi SSW 5.8 mph - N/A   Clear
1:54 PM 68.0 °F 53.1 °F 59% 29.70 in 10.0 mi South 10.4 mph - N/A   Clear
2:54 PM 70.0 °F 52.0 °F 53% 29.68 in 10.0 mi Variable 6.9 mph - N/A   Partly Cloudy
3:54 PM 71.1 °F 53.1 °F 53% 29.67 in 10.0 mi WSW 8.1 mph - N/A   Clear
4:54 PM 71.1 °F 53.1 °F 53% 29.65 in 10.0 mi Variable 3.5 mph - N/A   Clear
5:54 PM 69.1 °F 54.0 °F 58% 29.64 in 10.0 mi Calm Calm - 0.00 in   Scattered Clouds
6:54 PM 68.0 °F 55.9 °F 65% 29.62 in 10.0 mi Calm Calm - N/A   Overcast
7:54 PM 66.9 °F 57.0 °F 70% 29.62 in 10.0 mi SSW 8.1 mph - N/A   Mostly Cloudy
8:54 PM 64.0 °F 57.9 °F 80% 29.63 in 10.0 mi SSW 4.6 mph - N/A   Mostly Cloudy
9:54 PM 63.0 °F 59.0 °F 87% 29.65 in 10.0 mi SW 4.6 mph - N/A   Mostly Cloudy
10:54 PM 63.0 °F 59.0 °F 87% 29.67 in 10.0 mi SW 4.6 mph - N/A   Clear
11:54 PM 62.1 °F 57.9 °F 86% 29.66 in 10.0 mi SSW 3.5 mph - N/A   Scattered Clouds